Zurück zum Katalog

BREEZE-M DEB

TANK

AktivHEO
NORAD 35875·DEBRIS·🇷🇺 Russia

Gestartet Sep 17, 2009 von Baikonur Cosmodrome

Loading…

Nächste Überflüge (nächste 24 Stunden)

TLE

AktuellSource: Space-Track

Epoche: Sep 14, 2026, 06:51 UTC

1 35875U 09050C   26257.28572945  .00000775  00000-0  47049-3 0  9992
2 35875  49.3540 194.3493 5913167 352.3777   1.5352  4.11346286247457

Verfolge BREEZE-M DEB in Echtzeit mit AllMySat

Download on the App Store